Regional Weather Roundup
Issued by NWS Newport/Morehead, NC

Home | Current Version | Previous Version | Text Only | Print | Product List | Glossary On
Versions: 1 2 3 4 5 6 7 8 9 10 11 12 13 14 15 16 17 18 19 20 21 22 23 24 25 26 27 28 29 30 31 32 33 34 35 36 37 38 39 40 41 42 43 44 45 46 47 48 49 50
000
ASUS42 KMHX 262325
RWRMHX
WEATHER ROUNDUP FOR EASTERN NORTH CAROLINA
NATIONAL WEATHER SERVICE NEWPORT/MOREHEAD CITY NC
600 PM EST SUN FEB 26 2017

NOTE: "FAIR" INDICATES FEW OR NO CLOUDS BELOW 12,000 FEET
WITH NO SIGNIFICANT WEATHER AND/OR OBSTRUCTIONS TO VISIBILITY

NCZ015>017-031-032-045>047-102-103-270000-
NORTH COAST

CITY           SKY/WX    TMP DP  RH WIND       PRES   REMARKS
EDENTON        CLEAR     53  24  32 W5        30.23R
ELIZABETH CITY CLEAR     47  34  60 E8        30.22R
KITTY HAWK     NOT AVBL
MANTEO         CLEAR     44  34  68 SE5       30.24R

$$

NCZ045>047-081-094-103-104-270000-
CENTRAL COAST

CITY           SKY/WX    TMP DP  RH WIND       PRES   REMARKS
FRISCO         CLEAR     49  34  56 CALM      30.22R

$$

NCZ095-097-098-100-101-270000-
SOUTHERN COAST

CITY           SKY/WX    TMP DP  RH WIND       PRES   REMARKS
BEAUFORT       PTCLDY    55  25  31 NW7       30.21R
CEDAR ISLAND   NOT AVBL
JACKSONVILLE   CLEAR     54  22  28 W5        30.22R
PINEY ISLAND   CLEAR    N/A N/A N/A SE6       30.21R
WILMINGTON     CLEAR     55  21  26 W7        30.23R


$$

NCZ011>013-027>030-043-044-078>080-089-090>093-098-270000-
COASTAL PLAIN

CITY           SKY/WX    TMP DP  RH WIND       PRES   REMARKS
AHOSKIE          N/A     47  22  37 CALM      30.24R
CLINTON        CLEAR     53  26  35 CALM      30.24R
ELIZABETHTOWN  CLEAR     55  25  30 CALM      30.23R
GOLDSBORO      CLEAR     57  30  35 W2        30.14F
GREENVILLE     CLEAR     52  19  28 CALM      30.24R
HAVELOCK       CLEAR     55  20  25 W8        30.22R
KENANSVILLE    CLEAR     50  27  40 CALM      30.23R
KINSTON        CLEAR     54  18  24 CALM      30.23R
NEW BERN       CLEAR     53  23  31 W3        30.23R
RICHLANDS      CLEAR     53  24  32 CALM      30.23R
ROCKY MOUNT    CLEAR     52  19  27 W3        30.22R
WASHINGTON     CLEAR     52  21  30 CALM      30.23R
WHITEVILLE     CLEAR     53  26  34 CALM      30.23R

$$

AMZ130-135-150-152-154-156-158-170-250-252-270-ANZ085-086-088-633-658-670-270000-
MARINE OBSERVATIONS

STATION/POSITION TIME  TEMP    WIND        PRES    WAVE   SWELL
                       AIR SEA DIR/SP/G            HT/PER HT/PER
                 (UTC) (F)     (DEG/KT/KT) (MB)    (FT/S) (FT/S)
CHESAPEAKE LIGHT NOT AVBL
64 E VA BEACH    2250   44 51  360/  4/  8 1023.4    4/10   5/10
DUCK             2300   45 49  100/  9/ 10 1023.2
2 E DUCK         2300      50                N/A     4/10   2/11
OREGON INLET     2300   45 56   90/  4/  7 1023.4
13E OREGON INLT  NOT AVBL
HATTERAS CG      2300   52 61  230/  3/  3 1022.9
DIAMOND BUOY     2250   54 72  290/  4/  8 1023.4    4/ 9   3/ 9
CAPE LOOKOUT     2300   54     230/  6/  8 1023.0
BEAUFORT LAB     2300   56 62  240/  6/  9 1022.3
30 SE NEW RVR IN 2308   55     230/  4/  6 1023.6
30 SE NEW RVR IN 2313      65                N/A     3/ 9   2/11
27 SE WRIGHTSVLE 2308   55 63  230/  8/ 10 1022.9
5 SE WRIGHTSVLE  2308   55 58  180/ 10/ 16 1023.4
225 S CAPE HAT   2250   67 71  350/ 10/ 14 1022.3    6/ 7   5/ 7
41 SE CHARLESTON 2250   59 69  150/  4/  8 1023.3    3/ 9   3/ 9

$$



USA.gov is the U.S. government's official web portal to all federal, state and local government web resources and services.